Time[GMT],dominant_wave_period[s](0m),mean_wave_direction[degrees](0m),max_wave_height[m](0m),significant_wave_height[m](0m),mean_wave_direction_spread[degrees](0m)
2023-03-15 15:00,4.8,122.40,1.03,0.74,42.00
2023-03-15 16:00,15.4,124.40,1.07,0.74,41.00
2023-03-15 17:00,14.3,123.40,1.09,0.73,41.00
2023-03-15 18:00,3.7,123.40,1.23,0.73,41.00
2023-03-15 19:00,4.3,125.40,1.24,0.78,39.00
2023-03-15 20:00,3.7,120.40,1.16,0.76,40.00
2023-03-15 21:00,4.1,125.40,1.35,0.70,43.00
2023-03-15 22:00,4.0,127.40,1.00,0.64,42.00
2023-03-15 23:00,4.4,129.40,1.27,0.69,41.00
2023-03-16 00:00,4.9,127.40,1.06,0.70,44.00
2023-03-16 01:00,4.7,140.40,1.01,0.68,47.00
2023-03-16 02:00,4.4,139.40,1.04,0.69,43.00
2023-03-16 03:00,14.3,139.40,1.08,0.73,46.00
2023-03-16 04:00,14.3,139.40,1.23,0.70,45.00
2023-03-16 05:00,4.5,136.40,1.15,0.68,43.00
2023-03-16 06:00,14.3,134.40,1.27,0.65,43.00
2023-03-16 07:00,4.4,131.40,1.03,0.65,43.00
2023-03-16 08:00,14.3,138.40,1.07,0.63,45.00
2023-03-16 09:00,5.3,136.40,1.08,0.65,43.00
2023-03-16 10:00,15.4,135.40,0.98,0.63,43.00
2023-03-16 11:00,5.1,148.40,0.96,0.65,43.00
2023-03-16 12:00,13.3,141.40,1.04,0.67,45.00
2023-03-16 13:00,14.3,141.40,0.99,0.63,46.00
2023-03-16 14:00,13.3,142.40,1.15,0.60,50.00
2023-03-16 15:00,13.3,151.40,0.93,0.54,48.00
2023-03-16 16:00,14.3,157.40,0.90,0.60,49.00
2023-03-16 17:00,14.3,172.40,0.82,0.58,51.00
2023-03-16 18:00,5.1,173.40,0.95,0.62,45.00
2023-03-16 19:00,13.3,180.40,1.09,0.63,45.00
2023-03-16 20:00,14.3,174.40,1.18,0.57,48.00
2023-03-16 21:00,13.3,178.40,0.96,0.54,48.00
2023-03-16 22:00,14.3,161.40,0.84,0.50,45.00
2023-03-16 23:00,5.4,158.40,0.86,0.52,45.00
2023-03-17 00:00,5.3,146.40,1.04,0.53,40.00
2023-03-17 01:00,5.4,144.40,0.83,0.50,42.00
2023-03-17 02:00,5.3,140.40,0.97,0.52,42.00
2023-03-17 03:00,14.3,139.40,0.88,0.53,45.00
2023-03-17 04:00,5.3,146.40,0.86,0.53,44.00
2023-03-17 05:00,5.3,138.40,0.97,0.56,42.00
2023-03-17 06:00,5.7,151.40,1.01,0.58,44.00
2023-03-17 07:00,5.7,149.40,0.90,0.55,49.00
2023-03-17 08:00,5.4,135.40,0.88,0.59,45.00
2023-03-17 09:00,5.7,129.40,0.99,0.54,45.00
2023-03-17 10:00,5.4,120.40,0.99,0.57,47.00
2023-03-17 11:00,5.1,108.40,0.95,0.64,45.00
2023-03-17 12:00,28.6,98.40,1.16,0.73,49.00
2023-03-17 13:00,5.1,99.40,1.18,0.71,48.00
2023-03-17 14:00,28.6,83.40,1.63,0.87,45.00
2023-03-17 15:00,4.7,82.40,1.70,0.92,42.00
2023-03-17 16:00,4.8,80.40,1.62,1.03,37.00
2023-03-17 17:00,3.8,88.40,1.78,1.00,40.00
2023-03-17 18:00,28.6,85.40,1.86,0.97,37.00
2023-03-17 19:00,4.9,85.40,1.79,1.01,36.00
2023-03-17 20:00,4.9,89.40,1.81,1.05,37.00
2023-03-17 21:00,4.4,84.40,1.57,1.01,40.00
2023-03-17 22:00,4.2,81.40,1.46,0.95,42.00
2023-03-17 23:00,5.4,87.40,1.52,0.89,43.00
2023-03-18 00:00,5.4,90.40,1.46,0.89,41.00
2023-03-18 01:00,4.8,95.40,1.31,0.84,41.00
2023-03-18 02:00,4.7,93.40,1.18,0.79,41.00
2023-03-18 03:00,5.9,91.40,1.21,0.80,41.00
2023-03-18 04:00,5.4,95.40,1.82,0.94,41.00
2023-03-18 05:00,5.6,91.40,1.53,0.94,39.00
2023-03-18 06:00,5.3,92.40,1.61,1.00,37.00
2023-03-18 07:00,5.3,92.40,1.58,1.02,37.00
2023-03-18 08:00,5.1,88.40,1.48,0.99,40.00
2023-03-18 09:00,5.4,90.40,1.71,0.93,42.00
2023-03-18 10:00,5.6,86.40,1.30,0.86,47.00
2023-03-18 11:00,4.7,93.40,1.42,0.90,42.00
2023-03-18 12:00,5.1,89.40,1.65,0.94,40.00
2023-03-18 13:00,5.4,93.40,1.63,0.94,38.00
2023-03-18 14:00,5.4,91.40,1.57,0.98,38.00
2023-03-18 15:00,5.4,89.40,1.55,1.02,37.00
2023-03-18 16:00,6.3,90.40,1.66,1.11,35.00
2023-03-18 17:00,6.1,90.40,2.53,1.31,30.00
2023-03-18 18:00,5.4,90.40,2.66,1.30,30.00
2023-03-18 19:00,5.7,93.40,2.31,1.37,29.00
2023-03-18 20:00,5.7,96.40,1.81,1.21,33.00
2023-03-18 21:00,5.6,90.40,2.03,1.28,33.00
2023-03-18 22:00,6.1,95.40,2.22,1.33,33.00
2023-03-18 23:00,5.4,92.40,2.09,1.25,32.00
2023-03-19 00:00,5.9,94.40,2.35,1.25,33.00
2023-03-19 01:00,4.9,93.40,2.49,1.40,30.00
2023-03-19 02:00,6.5,94.40,2.08,1.43,29.00
2023-03-19 03:00,6.5,94.40,2.69,1.55,29.00
2023-03-19 04:00,6.5,94.40,2.29,1.40,32.00
2023-03-19 05:00,6.1,99.40,2.99,1.50,30.00
2023-03-19 06:00,5.9,97.40,2.19,1.43,31.00
2023-03-19 07:00,7.1,100.40,2.00,1.38,32.00
2023-03-19 08:00,6.7,96.40,2.42,1.37,36.00
2023-03-19 09:00,6.3,98.40,2.19,1.44,32.00
2023-03-19 10:00,6.1,103.40,2.24,1.41,32.00
2023-03-19 11:00,5.9,98.40,2.10,1.35,30.00
2023-03-19 12:00,6.7,97.40,2.36,1.32,32.00
2023-03-19 13:00,7.1,97.40,2.01,1.27,35.00
2023-03-19 14:00,6.9,97.40,2.19,1.34,30.00
2023-03-19 15:00,6.5,99.40,2.10,1.35,30.00
2023-03-19 16:00,6.3,100.40,2.04,1.28,34.00
2023-03-19 17:00,6.1,99.40,1.95,1.33,30.00
2023-03-19 18:00,6.5,101.40,2.30,1.32,32.00
2023-03-19 19:00,6.7,99.40,2.18,1.35,32.00
2023-03-19 20:00,7.1,100.40,2.36,1.53,30.00
2023-03-19 21:00,6.9,100.40,2.39,1.44,30.00
2023-03-19 22:00,6.3,98.40,2.17,1.42,35.00
2023-03-19 23:00,7.4,100.40,2.31,1.50,30.00
2023-03-20 00:00,6.7,100.40,2.58,1.52,31.00
2023-03-20 01:00,7.7,96.40,2.51,1.46,31.00
2023-03-20 02:00,6.9,99.40,2.74,1.59,32.00
2023-03-20 03:00,6.1,99.40,2.19,1.45,29.00
2023-03-20 04:00,5.9,97.40,2.29,1.42,31.00
2023-03-20 05:00,5.6,99.40,2.50,1.39,28.00
2023-03-20 06:00,6.3,100.40,2.27,1.43,30.00
2023-03-20 07:00,5.7,99.40,2.31,1.40,33.00
2023-03-20 08:00,5.3,96.40,2.26,1.28,31.00
2023-03-20 09:00,5.9,104.40,2.12,1.34,30.00
2023-03-20 10:00,6.3,104.40,2.28,1.24,33.00
2023-03-20 11:00,6.3,105.40,1.87,1.16,34.00
2023-03-20 12:00,5.6,103.40,1.91,1.20,31.00
2023-03-20 13:00,5.4,102.40,2.29,1.29,32.00
2023-03-20 14:00,5.9,102.40,1.96,1.28,31.00
2023-03-20 15:00,5.9,104.40,1.71,1.18,32.00
2023-03-20 16:00,7.1,101.40,2.37,1.29,35.00
2023-03-20 17:00,8.3,100.40,2.05,1.20,31.00
2023-03-20 18:00,7.7,98.40,2.43,1.29,30.00
2023-03-20 19:00,6.9,101.40,1.86,1.26,33.00
2023-03-20 20:00,7.1,101.40,2.03,1.25,33.00
2023-03-20 21:00,5.9,103.40,1.85,1.23,33.00
2023-03-20 22:00,5.9,109.40,1.87,1.15,33.00
2023-03-20 23:00,7.1,101.40,2.00,1.24,32.00
2023-03-21 00:00,6.7,101.40,1.98,1.30,34.00
2023-03-21 01:00,8.0,101.40,2.42,1.39,32.00
2023-03-21 02:00,6.7,102.40,2.22,1.40,33.00
2023-03-21 03:00,7.1,102.40,2.39,1.50,30.00
2023-03-21 04:00,5.7,101.40,2.41,1.45,33.00
2023-03-21 05:00,7.1,105.40,2.51,1.42,33.00
2023-03-21 06:00,6.1,107.40,2.54,1.41,33.00
2023-03-21 07:00,7.4,105.40,2.20,1.39,36.00
2023-03-21 08:00,6.1,107.40,2.49,1.43,31.00
2023-03-21 09:00,6.1,106.40,2.39,1.49,33.00
2023-03-21 10:00,5.9,108.40,2.31,1.48,33.00
2023-03-21 11:00,6.3,105.40,2.14,1.47,32.00
2023-03-21 12:00,6.7,106.40,1.96,1.51,32.00
2023-03-21 13:00,6.5,112.40,3.08,1.56,30.00
2023-03-21 14:00,6.1,111.40,2.33,1.38,33.00
2023-03-21 15:00,8.0,110.40,2.44,1.49,32.00
2023-03-21 16:00,6.1,108.40,2.42,1.39,33.00
2023-03-21 17:00,6.9,107.40,2.04,1.39,33.00
2023-03-21 18:00,6.7,110.40,2.79,1.49,30.00
2023-03-21 19:00,6.7,102.40,2.45,1.57,33.00
2023-03-21 20:00,5.7,103.40,2.52,1.56,36.00
2023-03-21 21:00,6.3,101.40,3.06,1.67,32.00
2023-03-21 22:00,6.9,103.40,2.68,1.55,36.00
2023-03-21 23:00,6.5,102.40,2.36,1.52,36.00
2023-03-22 00:00,6.5,104.40,3.08,1.67,32.00
2023-03-22 01:00,,,,,
2023-03-22 02:00,7.4,100.40,2.56,1.56,33.00
2023-03-22 03:00,5.7,101.40,2.50,1.52,29.00
2023-03-22 04:00,6.9,99.40,2.19,1.51,31.00
2023-03-22 05:00,7.4,101.40,2.02,1.36,32.00
2023-03-22 06:00,7.1,102.40,2.28,1.35,32.00
2023-03-22 07:00,6.9,101.40,2.47,1.38,32.00
2023-03-22 08:00,8.0,99.40,2.52,1.45,33.00
2023-03-22 09:00,6.5,98.40,2.15,1.42,30.00
2023-03-22 10:00,8.0,98.40,2.18,1.37,30.00
2023-03-22 11:00,6.7,103.40,2.53,1.34,32.00
2023-03-22 12:00,6.3,104.40,1.95,1.38,35.00
2023-03-22 13:00,7.1,101.40,1.82,1.29,35.00
2023-03-22 14:00,7.4,101.40,3.12,1.44,30.00
2023-03-22 15:00,8.3,102.40,2.33,1.33,30.00
2023-03-22 16:00,5.9,102.40,2.36,1.37,32.00
2023-03-22 17:00,8.3,103.40,2.29,1.33,34.00
2023-03-22 18:00,6.5,104.40,2.25,1.42,31.00
2023-03-22 19:00,6.7,99.40,2.26,1.33,30.00
2023-03-22 20:00,8.0,105.40,2.35,1.32,33.00
2023-03-22 21:00,6.1,98.40,2.08,1.35,34.00
2023-03-22 22:00,6.1,100.40,1.92,1.29,33.00
2023-03-22 23:00,6.3,105.40,2.25,1.28,33.00
2023-03-23 00:00,6.5,99.40,1.99,1.29,33.00
2023-03-23 01:00,5.9,106.40,2.38,1.28,35.00
2023-03-23 02:00,6.5,103.40,2.00,1.30,34.00
2023-03-23 03:00,6.1,104.40,2.33,1.30,33.00
2023-03-23 04:00,6.1,100.40,2.19,1.26,32.00
2023-03-23 05:00,8.3,103.40,2.61,1.35,31.00
2023-03-23 06:00,7.1,101.40,1.79,1.22,30.00
2023-03-23 08:00,6.5,101.40,2.25,1.32,30.00
2023-03-23 09:00,7.7,95.40,2.28,1.23,32.00
2023-03-23 10:00,8.7,98.40,2.04,1.24,28.00
2023-03-23 11:00,7.1,97.40,2.13,1.17,29.00
2023-03-23 12:00,8.3,96.40,1.94,1.22,30.00
2023-03-23 13:00,8.3,98.40,2.10,1.23,28.00
2023-03-23 14:00,9.1,95.40,2.00,1.26,29.00
2023-03-23 15:00,5.7,95.40,1.80,1.16,32.00
2023-03-23 16:00,5.4,99.40,1.79,1.13,31.00
2023-03-23 17:00,8.7,98.40,1.73,1.07,32.00
2023-03-23 18:00,8.7,97.40,1.43,1.00,32.00
2023-03-23 19:00,8.3,97.40,1.58,1.01,31.00
2023-03-23 20:00,8.7,99.40,1.41,0.93,36.00
2023-03-23 21:00,9.1,97.40,1.30,0.87,36.00
2023-03-23 22:00,8.7,97.40,1.40,0.92,36.00
2023-03-23 23:00,9.1,97.40,1.40,0.80,36.00
2023-03-24 00:00,5.7,94.40,1.60,0.80,35.00
2023-03-24 01:00,8.0,94.40,1.29,0.89,33.00
2023-03-24 02:00,8.3,97.40,1.58,0.93,31.00
2023-03-24 03:00,8.3,96.40,1.77,0.95,33.00
2023-03-24 04:00,8.7,104.40,1.90,1.01,32.00
2023-03-24 05:00,5.7,102.40,1.74,1.04,31.00
2023-03-24 06:00,6.3,102.40,1.62,1.06,30.00
2023-03-24 07:00,9.1,99.40,1.61,0.97,32.00
2023-03-24 08:00,9.1,98.40,1.60,0.97,33.00
2023-03-24 09:00,9.1,93.40,1.55,1.04,32.00
2023-03-24 10:00,8.7,96.40,1.61,1.00,34.00
2023-03-24 11:00,8.3,98.40,1.63,0.99,33.00
2023-03-24 12:00,9.5,99.40,1.54,1.04,32.00
2023-03-24 13:00,5.9,99.40,2.04,1.14,31.00
2023-03-24 14:00,9.1,104.40,1.88,1.14,34.00
2023-03-24 15:00,5.0,97.40,1.67,1.07,34.00
2023-03-24 16:00,5.3,99.40,1.51,1.00,35.00
2023-03-24 17:00,5.3,100.40,1.52,1.03,33.00
2023-03-24 18:00,8.7,101.40,1.49,1.01,34.00
2023-03-24 19:00,5.6,99.40,1.64,1.02,33.00
2023-03-24 20:00,8.7,100.40,1.72,0.94,35.00
2023-03-24 21:00,8.7,97.40,1.92,1.03,33.00
2023-03-24 22:00,5.6,97.40,1.68,1.04,32.00
2023-03-24 23:00,9.1,93.40,1.76,1.07,32.00
2023-03-25 00:00,8.7,95.40,1.49,1.03,31.00
2023-03-25 01:00,5.0,99.40,1.63,1.02,34.00
2023-03-25 02:00,9.1,97.40,1.65,1.02,30.00
2023-03-25 03:00,8.7,96.40,1.81,1.07,31.00
2023-03-25 04:00,5.7,102.40,1.92,1.12,32.00
2023-03-25 05:00,5.3,97.40,1.52,1.02,30.00
2023-03-25 06:00,5.1,98.40,1.83,1.12,28.00
2023-03-25 07:00,4.9,98.40,1.89,1.20,33.00
2023-03-25 08:00,5.7,96.40,1.71,1.12,34.00
2023-03-25 09:00,4.5,95.40,2.01,1.20,31.00
2023-03-25 10:00,5.6,95.40,1.83,1.19,31.00
2023-03-25 11:00,5.6,101.40,1.83,1.26,34.00
2023-03-25 12:00,5.4,90.40,2.09,1.31,32.00
2023-03-25 13:00,5.6,95.40,2.32,1.32,31.00
2023-03-25 14:00,5.6,97.40,2.18,1.29,33.00
2023-03-25 15:00,6.3,98.40,2.25,1.27,34.00
2023-03-25 16:00,6.1,98.40,2.42,1.36,32.00
2023-03-25 17:00,5.7,99.40,2.24,1.27,34.00
2023-03-25 18:00,5.6,102.40,2.46,1.27,33.00
2023-03-25 19:00,6.1,101.40,1.97,1.17,36.00
2023-03-25 20:00,5.7,103.40,1.72,1.14,33.00
2023-03-25 21:00,5.7,100.40,1.82,1.10,38.00
2023-03-25 22:00,5.6,100.40,1.98,1.29,32.00
2023-03-25 23:00,5.6,101.40,2.17,1.15,35.00
2023-03-26 00:00,6.7,103.40,1.66,1.12,34.00
2023-03-26 01:00,5.1,102.40,2.00,1.22,35.00
2023-03-26 02:00,5.0,102.40,1.68,1.07,33.00
2023-03-26 03:00,5.9,100.40,1.87,1.12,35.00
2023-03-26 04:00,5.6,103.40,1.99,1.13,34.00
2023-03-26 05:00,5.6,97.40,2.26,1.20,34.00
2023-03-26 06:00,6.1,102.40,2.39,1.23,36.00
2023-03-26 07:00,5.9,100.40,2.01,1.22,31.00
2023-03-26 08:00,5.6,103.40,1.86,1.17,30.00
2023-03-26 09:00,5.6,103.40,1.71,1.10,33.00
2023-03-26 10:00,5.3,103.40,1.94,1.22,33.00
2023-03-26 11:00,5.4,99.40,1.58,1.12,35.00
2023-03-26 12:00,5.9,100.40,1.62,1.05,33.00
2023-03-26 13:00,6.3,104.40,2.11,1.11,35.00
2023-03-26 14:00,5.9,102.40,1.98,1.14,33.00
2023-03-26 15:00,5.7,106.40,1.76,1.14,37.00
2023-03-26 16:00,6.1,107.40,1.85,1.18,36.00
2023-03-26 17:00,5.7,108.40,1.81,1.27,33.00
2023-03-26 18:00,5.7,108.40,1.91,1.13,37.00
2023-03-26 19:00,6.5,116.40,1.83,1.10,37.00
2023-03-26 20:00,5.7,111.40,2.08,1.12,33.00
2023-03-26 21:00,5.7,107.40,1.63,1.11,35.00
2023-03-26 22:00,5.7,106.40,2.14,1.17,34.00
2023-03-26 23:00,5.4,106.40,2.02,1.24,32.00
2023-03-27 00:00,5.6,103.40,2.13,1.16,38.00
2023-03-27 01:00,5.7,104.40,1.70,1.21,34.00
2023-03-27 02:00,5.9,102.40,2.01,1.33,34.00
2023-03-27 03:00,6.5,105.40,2.26,1.31,33.00
2023-03-27 04:00,5.7,105.40,2.34,1.32,32.00
2023-03-27 05:00,5.3,104.40,2.01,1.39,32.00
2023-03-27 06:00,6.3,106.40,2.45,1.31,32.00
2023-03-27 07:00,5.7,102.40,2.32,1.31,33.00
2023-03-27 08:00,5.9,102.40,2.11,1.30,33.00
2023-03-27 09:00,6.1,107.40,1.82,1.33,35.00
2023-03-27 10:00,5.7,101.40,2.41,1.31,33.00
2023-03-27 11:00,6.5,107.40,2.06,1.39,33.00
2023-03-27 12:00,6.3,99.40,2.21,1.41,31.00
2023-03-27 13:00,6.1,102.40,2.25,1.30,32.00
2023-03-27 14:00,5.6,103.40,2.03,1.25,35.00
2023-03-27 15:00,5.9,103.40,2.31,1.33,34.00
2023-03-27 16:00,5.6,104.40,2.06,1.34,34.00
2023-03-27 17:00,6.7,99.40,2.40,1.30,34.00
2023-03-27 18:00,6.1,97.40,2.08,1.20,37.00
2023-03-27 19:00,5.9,98.40,1.97,1.33,32.00
2023-03-27 20:00,6.3,96.40,2.02,1.21,34.00
2023-03-27 21:00,6.5,99.40,1.80,1.14,33.00
2023-03-27 22:00,6.1,100.40,1.85,1.12,33.00
2023-03-27 23:00,6.3,95.40,1.83,1.15,34.00
2023-03-28 00:00,6.7,94.40,1.74,1.12,35.00
2023-03-28 01:00,6.9,96.40,2.20,1.11,32.00
2023-03-28 02:00,6.5,95.40,1.95,1.13,33.00
2023-03-28 03:00,5.9,98.40,1.90,1.18,31.00
2023-03-28 04:00,6.7,96.40,2.28,1.17,32.00
2023-03-28 05:00,4.9,98.40,2.14,1.13,34.00
2023-03-28 06:00,6.9,97.40,2.15,1.21,33.00
2023-03-28 07:00,5.9,96.40,2.19,1.25,32.00
2023-03-28 08:00,5.6,102.40,1.85,1.10,33.00
2023-03-28 09:00,6.1,99.40,1.68,1.13,33.00
2023-03-28 10:00,6.5,98.40,1.96,1.17,33.00
2023-03-28 11:00,5.9,99.40,1.63,1.09,35.00
2023-03-28 12:00,6.7,97.40,1.82,1.20,29.00
2023-03-28 13:00,5.7,98.40,2.50,1.20,32.00
2023-03-28 14:00,6.9,94.40,1.95,1.20,33.00
2023-03-28 15:00,6.5,98.40,1.95,1.10,33.00
2023-03-28 16:00,5.6,97.40,1.97,1.20,30.00
2023-03-28 17:00,6.9,103.40,1.85,1.09,32.00
2023-03-28 18:00,6.1,100.40,1.58,1.09,32.00
2023-03-28 19:00,6.9,97.40,1.65,1.12,31.00
2023-03-28 20:00,6.7,95.40,1.99,1.09,30.00
2023-03-28 21:00,5.6,99.40,1.56,0.98,33.00
2023-03-28 22:00,5.7,93.40,1.68,0.96,35.00
2023-03-28 23:00,6.7,96.40,1.55,0.96,35.00
2023-03-29 00:00,7.4,99.40,1.40,0.89,34.00
2023-03-29 01:00,6.9,99.40,1.44,0.89,33.00
2023-03-29 02:00,6.7,98.40,1.83,0.96,32.00
2023-03-29 03:00,6.9,95.40,1.71,0.94,34.00
2023-03-29 04:00,6.5,101.40,1.47,0.95,33.00
2023-03-29 05:00,8.0,101.40,1.51,0.98,32.00
2023-03-29 06:00,8.0,98.40,1.82,1.01,34.00
2023-03-29 07:00,5.6,102.40,1.56,0.90,36.00
2023-03-29 08:00,5.9,105.40,1.60,0.92,35.00
2023-03-29 09:00,5.3,99.40,1.53,1.03,36.00
2023-03-29 10:00,5.0,97.40,2.02,1.19,35.00
2023-03-29 11:00,5.4,97.40,1.93,1.23,31.00
2023-03-29 12:00,6.1,94.40,2.45,1.20,34.00
2023-03-29 13:00,5.4,98.40,2.47,1.44,29.00
2023-03-29 14:00,5.6,94.40,2.25,1.35,30.00
2023-03-29 15:00,5.9,94.40,2.14,1.38,30.00
2023-03-29 16:00,6.1,99.40,2.22,1.38,31.00
2023-03-29 17:00,5.9,99.40,2.46,1.32,32.00
2023-03-29 18:00,6.7,95.40,2.17,1.16,33.00
2023-03-29 19:00,5.6,98.40,1.73,1.07,31.00
2023-03-29 20:00,5.9,102.40,1.58,1.04,33.00
2023-03-29 21:00,5.6,101.40,1.52,1.02,33.00
2023-03-29 22:00,5.9,105.40,1.85,1.03,33.00
2023-03-29 23:00,5.4,105.40,1.56,0.89,36.00
2023-03-30 00:00,5.9,107.40,1.41,0.91,35.00
2023-03-30 01:00,5.6,101.40,1.67,0.96,33.00
2023-03-30 02:00,5.9,96.40,1.28,0.94,34.00
2023-03-30 03:00,5.6,99.40,1.72,0.97,34.00
2023-03-30 04:00,6.7,95.40,1.84,0.97,32.00
2023-03-30 05:00,5.9,97.40,1.80,0.96,32.00
2023-03-30 06:00,4.3,99.40,2.18,1.12,31.00
2023-03-30 07:00,,,,,
2023-03-30 08:00,4.3,101.40,1.53,0.98,32.00
2023-03-30 09:00,5.1,103.40,1.42,0.95,35.00
2023-03-30 10:00,5.1,108.40,1.86,0.97,35.00
2023-03-30 11:00,5.3,111.40,1.65,0.95,33.00
2023-03-30 12:00,4.8,112.40,1.45,0.94,32.00
2023-03-30 13:00,5.6,113.40,1.62,1.03,35.00
2023-03-30 14:00,5.3,111.40,1.50,1.03,37.00
2023-03-30 15:00,5.4,102.40,1.52,1.00,36.00
2023-03-30 16:00,5.7,101.40,1.79,1.15,33.00
2023-03-30 17:00,5.6,102.40,1.93,1.08,34.00
2023-03-30 18:00,4.9,106.40,1.64,1.02,33.00
2023-03-30 19:00,5.9,106.40,1.59,1.03,33.00
2023-03-30 20:00,5.6,109.40,1.64,1.03,34.00
2023-03-30 21:00,5.9,112.40,1.55,0.99,34.00
2023-03-30 22:00,5.6,115.40,1.83,0.97,35.00
2023-03-30 23:00,5.7,113.40,1.67,1.02,32.00
2023-03-31 00:00,5.7,108.40,1.53,0.96,33.00
2023-03-31 01:00,5.7,110.40,1.50,0.90,36.00
2023-03-31 02:00,5.6,99.40,1.46,0.93,37.00
2023-03-31 03:00,5.1,100.40,1.46,0.96,34.00
2023-03-31 04:00,5.3,106.40,1.58,0.99,32.00
2023-03-31 05:00,4.9,102.40,1.63,1.03,33.00
2023-03-31 06:00,5.1,104.40,1.42,1.00,31.00
2023-03-31 07:00,5.6,108.40,1.78,1.10,29.00
2023-03-31 08:00,6.1,111.40,1.60,1.02,35.00
2023-03-31 09:00,5.7,101.40,1.84,1.09,32.00
2023-03-31 10:00,5.9,109.40,1.62,1.10,30.00
2023-03-31 11:00,5.9,107.40,1.70,1.13,33.00
2023-03-31 12:00,5.6,109.40,1.76,1.10,32.00
2023-03-31 13:00,5.4,103.40,1.83,1.17,33.00
2023-03-31 14:00,6.1,107.40,1.87,1.14,34.00
2023-03-31 15:00,5.7,99.40,2.04,1.20,32.00
2023-03-31 16:00,5.1,103.40,2.64,1.34,32.00
2023-03-31 17:00,5.9,99.40,1.98,1.24,33.00
2023-03-31 18:00,5.4,102.40,1.89,1.28,32.00
2023-03-31 19:00,5.9,103.40,1.96,1.31,33.00
2023-03-31 20:00,5.4,101.40,1.71,1.19,32.00
2023-03-31 21:00,6.1,99.40,1.94,1.23,31.00
2023-03-31 22:00,4.5,98.40,2.40,1.26,31.00
2023-03-31 23:00,5.4,92.40,1.92,1.20,32.00
2023-04-01 00:00,5.7,94.40,1.91,1.16,31.00
2023-04-01 01:00,5.7,93.40,2.18,1.18,31.00
2023-04-01 02:00,6.1,91.40,2.39,1.33,29.00
2023-04-01 03:00,5.7,94.40,2.47,1.33,28.00
2023-04-01 04:00,5.7,96.40,2.25,1.41,28.00
2023-04-01 05:00,6.1,96.40,2.17,1.39,30.00
2023-04-01 06:00,6.9,96.40,3.10,1.48,28.00
2023-04-01 07:00,6.1,94.40,2.73,1.52,30.00
2023-04-01 08:00,6.7,93.40,2.74,1.52,27.00
2023-04-01 09:00,6.5,90.40,2.18,1.48,29.00
2023-04-01 10:00,6.7,93.40,2.64,1.52,28.00
2023-04-01 11:00,6.5,94.40,2.30,1.44,31.00
2023-04-01 12:00,5.4,93.40,2.53,1.55,31.00
2023-04-01 13:00,6.3,89.40,2.47,1.54,30.00
2023-04-01 14:00,5.6,93.40,2.43,1.46,30.00
2023-04-01 15:00,6.7,91.40,2.41,1.47,31.00
2023-04-01 16:00,6.1,94.40,2.13,1.47,31.00
2023-04-01 17:00,7.1,89.40,2.63,1.51,30.00
2023-04-01 18:00,6.7,93.40,2.10,1.41,30.00
2023-04-01 19:00,6.9,91.40,2.18,1.34,32.00
2023-04-01 20:00,6.9,91.40,2.65,1.42,28.00
2023-04-01 21:00,6.7,93.40,1.79,1.26,32.00
2023-04-01 22:00,7.1,93.40,2.19,1.44,28.00
2023-04-01 23:00,6.3,97.40,2.49,1.37,32.00
2023-04-02 00:00,6.1,99.40,2.09,1.28,31.00
2023-04-02 01:00,6.9,97.40,2.59,1.32,28.00
2023-04-02 02:00,5.1,93.40,2.09,1.24,32.00
2023-04-02 03:00,6.1,96.40,2.66,1.35,32.00
2023-04-02 04:00,6.1,97.40,2.11,1.36,30.00
2023-04-02 05:00,6.1,99.40,2.20,1.29,34.00
2023-04-02 06:00,6.9,101.40,2.30,1.35,31.00
2023-04-02 07:00,6.3,102.40,2.03,1.30,33.00
2023-04-02 08:00,6.7,103.40,2.50,1.46,30.00
2023-04-02 09:00,6.7,103.40,2.09,1.34,31.00
2023-04-02 10:00,7.1,100.40,2.41,1.47,28.00
2023-04-02 11:00,5.9,97.40,2.47,1.53,29.00
2023-04-02 12:00,5.7,99.40,2.39,1.42,31.00
2023-04-02 13:00,6.3,100.40,2.38,1.42,30.00
2023-04-02 14:00,6.1,103.40,2.18,1.34,34.00
2023-04-02 15:00,7.1,104.40,2.43,1.38,31.00
2023-04-02 16:00,6.3,103.40,2.17,1.29,33.00
2023-04-02 17:00,6.9,100.40,1.91,1.35,32.00
2023-04-02 18:00,6.7,102.40,2.05,1.27,33.00
2023-04-02 19:00,6.9,100.40,2.15,1.29,32.00
2023-04-02 20:00,7.1,103.40,2.14,1.24,33.00
2023-04-02 21:00,7.4,101.40,1.93,1.22,32.00
2023-04-02 22:00,6.9,99.40,2.15,1.35,32.00
2023-04-02 23:00,7.4,99.40,1.90,1.26,33.00
2023-04-03 00:00,6.5,103.40,2.16,1.30,34.00
2023-04-03 01:00,5.6,102.40,2.14,1.29,31.00
2023-04-03 02:00,7.4,101.40,2.08,1.30,32.00
2023-04-03 03:00,6.9,106.40,2.28,1.37,33.00
2023-04-03 04:00,6.3,108.40,2.39,1.34,31.00
2023-04-03 05:00,6.5,109.40,2.39,1.28,33.00
2023-04-03 06:00,7.4,109.40,2.51,1.23,32.00
2023-04-03 07:00,5.3,112.40,2.02,1.31,35.00
2023-04-03 08:00,5.9,109.40,2.70,1.43,32.00
2023-04-03 09:00,6.7,109.40,1.97,1.36,35.00
2023-04-03 10:00,5.6,103.40,2.17,1.44,36.00
2023-04-03 11:00,5.7,105.40,2.48,1.47,34.00
2023-04-03 12:00,6.5,104.40,2.29,1.50,33.00
2023-04-03 13:00,6.3,107.40,2.43,1.59,31.00
2023-04-03 14:00,7.7,102.40,2.37,1.42,34.00
2023-04-03 15:00,6.9,107.40,2.83,1.43,33.00
2023-04-03 16:00,6.5,105.40,1.98,1.27,37.00
2023-04-03 17:00,6.1,103.40,1.94,1.28,34.00
2023-04-03 18:00,7.7,101.40,2.12,1.31,32.00
2023-04-03 19:00,6.5,102.40,1.86,1.24,35.00
2023-04-03 20:00,6.9,103.40,2.17,1.21,33.00
2023-04-03 21:00,6.1,100.40,2.21,1.29,34.00
2023-04-03 22:00,5.9,103.40,2.10,1.23,35.00
2023-04-03 23:00,6.5,100.40,2.03,1.16,33.00
2023-04-04 00:00,6.1,100.40,1.74,1.20,34.00
2023-04-04 01:00,5.9,102.40,2.51,1.38,31.00
2023-04-04 02:00,5.1,103.40,2.21,1.31,35.00
2023-04-04 03:00,5.9,104.40,2.40,1.34,31.00
2023-04-04 04:00,6.1,99.40,2.16,1.33,33.00
2023-04-04 05:00,6.1,106.40,1.89,1.21,33.00
2023-04-04 06:00,5.7,104.40,1.80,1.23,30.00
2023-04-04 07:00,5.4,106.40,1.86,1.16,35.00
2023-04-04 08:00,5.7,101.40,1.93,1.23,32.00
2023-04-04 09:00,5.7,103.40,2.51,1.26,31.00
2023-04-04 10:00,5.7,103.40,2.17,1.29,34.00
2023-04-04 11:00,5.6,107.40,1.95,1.31,36.00
2023-04-04 12:00,5.6,106.40,2.03,1.32,34.00
2023-04-04 13:00,5.7,104.40,3.22,1.41,34.00
2023-04-04 14:00,5.9,103.40,2.28,1.34,33.00
2023-04-04 15:00,5.9,105.40,2.33,1.29,33.00
2023-04-04 16:00,5.0,104.40,2.23,1.38,33.00
2023-04-04 17:00,6.1,99.40,2.34,1.45,31.00
2023-04-04 18:00,5.9,102.40,2.78,1.40,35.00
2023-04-04 19:00,6.3,99.40,2.65,1.43,33.00
2023-04-04 20:00,6.1,98.40,2.33,1.39,32.00
2023-04-04 21:00,5.7,99.40,2.30,1.42,31.00
2023-04-04 22:00,5.9,100.40,2.36,1.40,35.00
2023-04-04 23:00,5.7,103.40,2.25,1.42,32.00
2023-04-05 00:00,5.9,102.40,2.42,1.33,33.00
2023-04-05 01:00,6.5,104.40,2.14,1.41,33.00
2023-04-05 02:00,6.5,99.40,2.10,1.38,34.00
2023-04-05 03:00,8.0,99.40,2.18,1.42,32.00
2023-04-05 04:00,6.5,100.40,2.63,1.38,27.00
2023-04-05 05:00,7.4,97.40,2.21,1.34,31.00
2023-04-05 06:00,5.7,98.40,2.11,1.36,30.00
2023-04-05 07:00,6.5,102.40,2.05,1.30,31.00
2023-04-05 08:00,6.1,104.40,2.28,1.43,29.00
2023-04-05 09:00,6.1,98.40,2.76,1.37,31.00
2023-04-05 10:00,6.1,99.40,2.13,1.38,32.00
2023-04-05 11:00,6.3,101.40,2.13,1.48,30.00
2023-04-05 12:00,6.7,101.40,2.28,1.42,31.00
2023-04-05 13:00,5.9,101.40,2.23,1.44,31.00
2023-04-05 14:00,6.1,97.40,2.50,1.52,31.00
2023-04-05 15:00,5.9,101.40,2.26,1.37,31.00
2023-04-05 16:00,5.7,99.40,2.18,1.42,33.00
2023-04-05 17:00,5.7,99.40,2.54,1.34,29.00
2023-04-05 18:00,6.9,96.40,2.53,1.42,30.00
2023-04-05 19:00,6.9,95.40,1.98,1.31,32.00
2023-04-05 20:00,6.3,91.40,2.31,1.42,28.00
2023-04-05 21:00,8.3,90.40,2.49,1.55,27.00
2023-04-05 22:00,6.7,90.40,2.44,1.34,32.00
2023-04-05 23:00,8.0,94.40,2.29,1.51,27.00
2023-04-06 00:00,6.5,94.40,2.82,1.58,25.00
2023-04-06 01:00,5.7,93.40,2.69,1.47,29.00
2023-04-06 02:00,6.9,99.40,2.14,1.44,29.00
2023-04-06 03:00,6.1,96.40,2.37,1.50,29.00
2023-04-06 04:00,6.3,95.40,2.82,1.42,29.00
2023-04-06 05:00,6.1,95.40,2.20,1.40,30.00
2023-04-06 06:00,5.9,94.40,2.38,1.44,27.00
2023-04-06 07:00,8.3,99.40,2.50,1.40,33.00
2023-04-06 08:00,8.7,95.40,2.25,1.44,30.00
2023-04-06 10:00,6.1,94.40,2.05,1.32,29.00
2023-04-06 11:00,6.3,93.40,2.14,1.32,27.00
2023-04-06 12:00,6.1,98.40,2.27,1.50,28.00
2023-04-06 13:00,6.3,100.40,2.29,1.34,29.00
2023-04-06 14:00,6.1,98.40,2.55,1.51,29.00
2023-04-06 15:00,6.5,90.40,2.49,1.39,34.00
2023-04-06 16:00,5.7,98.40,2.20,1.41,29.00
2023-04-06 17:00,5.3,99.40,2.47,1.44,31.00
2023-04-06 18:00,6.5,104.40,2.84,1.52,31.00
2023-04-06 19:00,6.9,103.40,2.65,1.55,33.00
2023-04-06 20:00,5.4,101.40,2.61,1.53,34.00
2023-04-06 21:00,6.9,106.40,2.22,1.39,33.00
2023-04-06 22:00,6.3,103.40,2.42,1.48,31.00
2023-04-06 23:00,6.7,101.40,2.44,1.49,30.00